Time,TemperatureF,DewpointF,PressureIn,WindDirection,WindDirectionDegrees,WindSpeedMPH,WindSpeedGustMPH,Humidity,HourlyPrecipIn,Conditions,Clouds,dailyrainin,SoftwareType,DateUTC
2013-05-26 07:34:00,73.2,71.7,29.47,South,177,5.8,5.8,95,0.08,,---,0.00,VWS V13.01,2013-05-26 12:34:00,
2013-05-26 07:39:00,73.2,71.7,29.47,East,99,0.0,3.1,95,0.08,,---,0.00,VWS V13.01,2013-05-26 12:39:00,
2013-05-26 07:44:00,73.2,71.7,29.47,SE,146,6.3,7.6,95,0.08,,---,0.00,VWS V13.01,2013-05-26 12:44:00,
2013-05-26 07:49:00,73.2,71.7,29.47,SSE,163,4.9,4.9,95,0.08,,---,0.00,VWS V13.01,2013-05-26 12:49:00,
2013-05-26 07:54:00,73.2,71.7,29.47,SSE,155,5.4,5.8,95,0.08,,---,0.00,VWS V13.01,2013-05-26 12:54:00,
2013-05-26 07:59:00,73.4,71.9,29.47,SSE,164,0.0,2.7,95,0.08,,---,0.00,VWS V13.01,2013-05-26 12:59:00,
2013-05-26 08:04:00,73.4,71.9,29.47,WSW,240,3.6,3.6,95,0.08,,---,0.00,VWS V13.01,2013-05-26 13:04:00,
2013-05-26 08:09:00,73.4,71.9,29.47,SSE,149,10.5,10.5,95,0.08,,---,0.00,VWS V13.01,2013-05-26 13:09:00,
2013-05-26 08:14:00,73.4,71.9,29.47,South,175,3.1,5.8,95,0.08,,---,0.00,VWS V13.01,2013-05-26 13:14:00,
2013-05-26 08:19:00,73.6,72.1,29.47,SE,130,8.1,8.1,95,0.08,,---,0.00,VWS V13.01,2013-05-26 13:19:00,
2013-05-26 08:24:00,73.6,72.1,29.47,SE,142,3.6,8.3,95,0.08,,---,0.00,VWS V13.01,2013-05-26 13:24:00,
2013-05-26 08:29:00,73.6,72.1,29.47,SSE,157,5.4,7.6,95,0.08,,---,0.00,VWS V13.01,2013-05-26 13:29:00,
2013-05-26 08:34:00,73.8,72.2,29.47,South,182,10.1,10.1,95,0.08,,---,0.00,VWS V13.01,2013-05-26 13:34:00,
2013-05-26 08:39:00,73.8,72.2,29.47,SSE,158,6.3,6.3,95,0.00,,---,0.00,VWS V13.01,2013-05-26 13:39:00,
2013-05-26 08:44:00,73.9,72.4,29.47,SE,125,8.1,8.1,95,0.00,,---,0.00,VWS V13.01,2013-05-26 13:44:00,
2013-05-26 08:49:00,74.1,72.6,29.47,SE,126,5.4,5.4,95,0.00,,---,0.00,VWS V13.01,2013-05-26 13:49:00,
2013-05-26 08:54:00,74.1,72.6,29.47,SSW,207,7.6,7.6,95,0.00,,---,0.00,VWS V13.01,2013-05-26 13:54:00,
2013-05-26 08:59:00,74.5,73.0,29.50,South,172,5.4,5.8,95,0.00,,---,0.00,VWS V13.01,2013-05-26 13:59:00,
2013-05-26 09:04:00,75.2,73.4,29.50,SE,143,3.1,4.9,94,0.00,,---,0.00,VWS V13.01,2013-05-26 14:04:00,
2013-05-26 09:09:00,75.7,73.9,29.50,SE,144,3.1,8.7,94,0.00,,---,0.00,VWS V13.01,2013-05-26 14:09:00,
2013-05-26 09:14:00,75.9,74.1,29.50,SSE,155,5.8,8.7,94,0.00,,---,0.00,VWS V13.01,2013-05-26 14:14:00,
2013-05-26 09:19:00,75.7,73.6,29.50,SSE,148,4.0,7.2,93,0.00,,---,0.00,VWS V13.01,2013-05-26 14:19:00,
2013-05-26 09:24:00,75.6,73.1,29.50,SSE,154,5.4,5.4,92,0.00,,---,0.00,VWS V13.01,2013-05-26 14:24:00,
2013-05-26 09:29:00,75.6,72.8,29.50,ESE,119,8.7,8.7,91,0.00,,---,0.00,VWS V13.01,2013-05-26 14:29:00,
2013-05-26 09:34:00,76.1,73.0,29.50,ESE,116,5.4,10.5,90,0.00,,---,0.00,VWS V13.01,2013-05-26 14:34:00,
2013-05-26 09:39:00,76.6,73.2,29.50,SE,129,5.4,10.5,89,0.00,,---,0.00,VWS V13.01,2013-05-26 14:39:00,
2013-05-26 09:44:00,77.0,72.5,29.50,SSE,162,0.0,5.8,86,0.00,,---,0.00,VWS V13.01,2013-05-26 14:44:00,
2013-05-26 09:49:00,77.5,72.7,29.50,ENE,73,5.4,8.7,85,0.00,,---,0.00,VWS V13.01,2013-05-26 14:49:00,
2013-05-26 09:54:00,78.3,72.3,29.50,SSW,194,3.1,5.8,82,0.00,,---,0.00,VWS V13.01,2013-05-26 14:54:00,
2013-05-26 09:59:00,78.6,71.2,29.50,SSE,151,5.8,8.1,78,0.00,,---,0.00,VWS V13.01,2013-05-26 14:59:00,
2013-05-26 10:04:00,78.3,70.5,29.50,SSE,151,11.0,11.0,77,0.00,,---,0.00,VWS V13.01,2013-05-26 15:04:00,
2013-05-26 10:09:00,78.1,70.7,29.50,East,97,4.0,7.6,78,0.00,,---,0.00,VWS V13.01,2013-05-26 15:09:00,
2013-05-26 10:14:00,77.9,70.5,29.50,SSE,156,8.1,13.2,78,0.00,,---,0.00,VWS V13.01,2013-05-26 15:14:00,
2013-05-26 10:19:00,78.6,71.6,29.50,SSE,167,8.3,8.3,79,0.00,,---,0.00,VWS V13.01,2013-05-26 15:19:00,
2013-05-26 10:24:00,79.0,71.2,29.50,SSE,160,8.1,8.7,77,0.00,,---,0.00,VWS V13.01,2013-05-26 15:24:00,
2013-05-26 10:29:00,79.3,70.7,29.50,South,175,3.1,4.5,75,0.00,,---,0.00,VWS V13.01,2013-05-26 15:29:00,
2013-05-26 10:34:00,79.2,70.6,29.50,SSE,154,2.7,3.6,75,0.00,,---,0.00,VWS V13.01,2013-05-26 15:34:00,
2013-05-26 10:39:00,78.8,70.2,29.50,ESE,111,5.4,7.2,75,0.00,,---,0.00,VWS V13.01,2013-05-26 15:39:00,
2013-05-26 10:44:00,78.4,70.2,29.50,SE,143,4.0,11.0,76,0.00,,---,0.00,VWS V13.01,2013-05-26 15:44:00,
2013-05-26 10:49:00,78.8,71.0,29.50,SE,136,2.7,5.4,77,0.00,,---,0.00,VWS V13.01,2013-05-26 15:49:00,
2013-05-26 10:54:00,79.7,71.5,29.50,SE,136,9.6,9.6,76,0.00,,---,0.00,VWS V13.01,2013-05-26 15:54:00,
2013-05-26 10:59:00,79.7,70.7,29.47,SE,131,8.3,8.3,74,0.00,,---,0.00,VWS V13.01,2013-05-26 15:59:00,
2013-05-26 11:04:00,79.3,69.5,29.47,South,187,2.2,3.6,72,0.00,,---,0.00,VWS V13.01,2013-05-26 16:04:00,
2013-05-26 11:09:00,79.7,70.7,29.47,SSE,165,6.3,6.3,74,0.00,,---,0.00,VWS V13.01,2013-05-26 16:09:00,
2013-05-26 11:14:00,79.5,70.1,29.47,SSW,201,5.8,8.3,73,0.00,,---,0.00,VWS V13.01,2013-05-26 16:14:00,
2013-05-26 11:19:00,79.3,70.3,29.47,South,191,4.9,6.3,74,0.00,,---,0.00,VWS V13.01,2013-05-26 16:19:00,
2013-05-26 11:24:00,79.7,70.3,29.47,SE,137,6.3,6.3,73,0.00,,---,0.00,VWS V13.01,2013-05-26 16:24:00,
2013-05-26 11:29:00,79.7,70.3,29.47,SE,137,6.3,6.3,73,0.00,,---,0.00,VWS V13.01,2013-05-26 16:29:00,
2013-05-26 11:34:00,79.7,70.3,29.47,SE,137,6.3,6.3,73,0.00,,---,0.00,VWS V13.01,2013-05-26 16:34:00,
2013-05-26 11:39:00,79.7,70.3,29.47,SE,137,6.3,6.3,73,0.00,,---,0.00,VWS V13.01,2013-05-26 16:39:00,
2013-05-26 11:44:00,79.7,70.3,29.47,SE,137,6.3,6.3,73,0.00,,---,0.00,VWS V13.01,2013-05-26 16:44:00,
2013-05-26 11:49:00,79.7,70.3,29.47,SE,137,6.3,6.3,73,0.00,,---,0.00,VWS V13.01,2013-05-26 16:49:00,
2013-05-26 11:54:00,79.7,70.3,29.47,SE,137,6.3,6.3,73,0.00,,---,0.00,VWS V13.01,2013-05-26 16:54:00,
2013-05-26 11:59:00,81.1,70.4,29.47,SE,137,6.3,6.3,70,0.00,,---,0.00,VWS V13.01,2013-05-26 16:59:00,
2013-05-26 12:04:00,81.1,70.4,29.47,SE,137,6.3,6.3,70,0.00,,---,0.00,VWS V13.01,2013-05-26 17:04:00,
2013-05-26 12:09:00,81.1,70.4,29.47,SE,137,6.3,6.3,70,0.00,,---,0.00,VWS V13.01,2013-05-26 17:09:00,
2013-05-26 12:14:00,81.1,70.4,29.47,SE,137,6.3,6.3,70,0.00,,---,0.00,VWS V13.01,2013-05-26 17:14:00,
2013-05-26 12:19:00,81.1,70.4,29.47,SE,137,6.3,6.3,70,0.00,,---,0.00,VWS V13.01,2013-05-26 17:19:00,
2013-05-26 12:24:00,81.1,70.4,29.47,SSE,166,10.5,10.5,70,0.00,,---,0.00,VWS V13.01,2013-05-26 17:24:00,
2013-05-26 12:29:00,81.1,70.4,29.47,SSE,154,3.6,3.6,70,0.00,,---,0.00,VWS V13.01,2013-05-26 17:29:00,
2013-05-26 12:34:00,83.3,69.4,29.47,SSE,154,3.6,3.6,63,0.00,,---,0.00,VWS V13.01,2013-05-26 17:34:00,
2013-05-26 12:39:00,82.6,69.6,29.47,SSE,154,3.6,3.6,65,0.00,,---,0.00,VWS V13.01,2013-05-26 17:39:00,
2013-05-26 12:44:00,82.6,69.6,29.47,SSE,154,3.6,3.6,65,0.00,,---,0.00,VWS V13.01,2013-05-26 17:44:00,
2013-05-26 12:49:00,82.6,69.6,29.47,SSE,154,3.6,3.6,65,0.00,,---,0.00,VWS V13.01,2013-05-26 17:49:00,
2013-05-26 12:54:00,82.6,69.6,29.47,SSE,154,3.6,3.6,65,0.00,,---,0.00,VWS V13.01,2013-05-26 17:54:00,
2013-05-26 12:59:00,84.7,70.3,29.47,SSE,154,3.6,3.6,62,0.00,,---,0.00,VWS V13.01,2013-05-26 17:59:00,
2013-05-26 13:04:00,84.7,70.3,29.47,SSE,154,3.6,3.6,62,0.00,,---,0.00,VWS V13.01,2013-05-26 18:04:00,
2013-05-26 13:09:00,84.7,70.3,29.47,SE,136,8.1,8.1,62,0.00,,---,0.00,VWS V13.01,2013-05-26 18:09:00,
2013-05-26 13:14:00,85.5,71.4,29.47,SE,136,8.1,8.1,63,0.00,,---,0.00,VWS V13.01,2013-05-26 18:14:00,
2013-05-26 13:19:00,85.5,71.4,29.47,SE,125,6.7,6.7,63,0.00,,---,0.00,VWS V13.01,2013-05-26 18:19:00,
2013-05-26 13:24:00,85.5,71.4,29.47,SE,125,6.7,6.7,63,0.00,,---,0.00,VWS V13.01,2013-05-26 18:24:00,
2013-05-26 13:29:00,85.5,69.5,29.47,ESE,120,5.4,5.4,59,0.00,,---,0.00,VWS V13.01,2013-05-26 18:29:00,
2013-05-26 13:34:00,85.5,69.5,29.47,ESE,120,5.4,5.4,59,0.00,,---,0.00,VWS V13.01,2013-05-26 18:34:00,
2013-05-26 13:39:00,85.5,69.5,29.47,ESE,120,5.4,5.4,59,0.00,,---,0.00,VWS V13.01,2013-05-26 18:39:00,
2013-05-26 13:44:00,86.0,69.5,29.47,SE,136,8.7,8.7,58,0.00,,---,0.00,VWS V13.01,2013-05-26 18:44:00,
2013-05-26 13:49:00,86.0,69.5,29.47,SE,136,8.7,8.7,58,0.00,,---,0.00,VWS V13.01,2013-05-26 18:49:00,
2013-05-26 13:54:00,84.9,67.5,29.47,South,187,6.3,6.3,56,0.00,,---,0.00,VWS V13.01,2013-05-26 18:54:00,
2013-05-26 13:59:00,84.9,67.5,29.47,SSE,161,4.0,4.0,56,0.00,,---,0.00,VWS V13.01,2013-05-26 18:59:00,
2013-05-26 14:04:00,83.7,69.3,29.47,SSE,159,2.2,2.2,62,0.00,,---,0.00,VWS V13.01,2013-05-26 19:04:00,
2013-05-26 14:09:00,83.8,70.4,29.47,SSE,149,5.4,5.4,64,0.00,,---,0.00,VWS V13.01,2013-05-26 19:09:00,
2013-05-26 14:14:00,83.8,70.4,29.47,SSE,157,6.3,6.3,64,0.00,,---,0.00,VWS V13.01,2013-05-26 19:14:00,
2013-05-26 14:19:00,84.7,68.8,29.47,SE,141,0.0,0.0,59,0.00,,---,0.00,VWS V13.01,2013-05-26 19:19:00,
2013-05-26 14:24:00,84.9,68.5,29.47,SE,129,5.8,13.2,58,0.00,,---,0.00,VWS V13.01,2013-05-26 19:24:00,
2013-05-26 14:29:00,85.6,69.7,29.47,SE,141,5.4,5.4,59,0.00,,---,0.00,VWS V13.01,2013-05-26 19:29:00,
2013-05-26 14:34:00,85.6,69.7,29.47,SE,139,8.1,8.1,59,0.00,,---,0.00,VWS V13.01,2013-05-26 19:34:00,
2013-05-26 14:39:00,85.6,69.7,29.47,SE,128,5.8,5.8,59,0.00,,---,0.00,VWS V13.01,2013-05-26 19:39:00,
2013-05-26 14:44:00,86.7,67.6,29.47,SSW,197,8.3,8.3,53,0.00,,---,0.00,VWS V13.01,2013-05-26 19:44:00,
2013-05-26 14:49:00,87.1,67.3,29.47,ESE,118,5.4,5.4,52,0.00,,---,0.00,VWS V13.01,2013-05-26 19:49:00,
2013-05-26 14:54:00,87.1,67.3,29.47,SSE,162,6.3,6.3,52,0.00,,---,0.00,VWS V13.01,2013-05-26 19:54:00,
2013-05-26 14:59:00,87.1,67.3,29.47,SSE,164,5.8,5.8,52,0.00,,---,0.00,VWS V13.01,2013-05-26 19:59:00,
2013-05-26 15:04:00,87.4,67.1,29.47,SSE,155,5.4,5.4,51,0.00,,---,0.00,VWS V13.01,2013-05-26 20:04:00,
2013-05-26 15:09:00,87.4,67.1,29.47,SE,145,8.1,8.1,51,0.00,,---,0.00,VWS V13.01,2013-05-26 20:09:00,
2013-05-26 15:14:00,87.4,67.1,29.47,SSE,155,8.3,8.3,51,0.00,,---,0.00,VWS V13.01,2013-05-26 20:14:00,
2013-05-26 15:19:00,87.4,67.1,29.47,SE,132,2.2,2.2,51,0.00,,---,0.00,VWS V13.01,2013-05-26 20:19:00,
2013-05-26 15:24:00,87.4,67.1,29.47,SSE,165,12.8,12.8,51,0.00,,---,0.00,VWS V13.01,2013-05-26 20:24:00,
2013-05-26 15:29:00,87.4,67.1,29.47,SE,144,5.8,5.8,51,0.00,,---,0.00,VWS V13.01,2013-05-26 20:29:00,
2013-05-26 15:34:00,86.5,66.3,29.47,SSW,203,7.6,7.6,51,0.00,,---,0.00,VWS V13.01,2013-05-26 20:34:00,
2013-05-26 15:39:00,86.5,67.4,29.41,SSE,154,8.1,8.1,53,0.00,,---,0.00,VWS V13.01,2013-05-26 20:39:00,
2013-05-26 15:44:00,86.4,66.7,29.41,SSE,168,5.8,5.8,52,0.00,,---,0.00,VWS V13.01,2013-05-26 20:44:00,
2013-05-26 15:49:00,86.4,66.7,29.41,South,185,4.9,7.6,52,0.00,,---,0.00,VWS V13.01,2013-05-26 20:49:00,
2013-05-26 15:54:00,86.2,65.9,29.41,SSE,157,10.1,10.1,51,0.00,,---,0.00,VWS V13.01,2013-05-26 20:54:00,
2013-05-26 15:59:00,86.4,67.2,29.41,ESE,122,4.0,4.0,53,0.00,,---,0.00,VWS V13.01,2013-05-26 20:59:00,
2013-05-26 16:04:00,86.5,66.3,29.41,South,175,10.5,10.5,51,0.00,,---,0.00,VWS V13.01,2013-05-26 21:04:00,
2013-05-26 16:09:00,86.5,66.3,29.41,South,183,8.7,8.7,51,0.00,,---,0.00,VWS V13.01,2013-05-26 21:09:00,
2013-05-26 16:14:00,86.5,66.3,29.41,SE,130,6.3,6.3,51,0.00,,---,0.00,VWS V13.01,2013-05-26 21:14:00,
2013-05-26 16:19:00,85.6,64.9,29.41,SSE,163,8.3,8.3,50,0.00,,---,0.00,VWS V13.01,2013-05-26 21:19:00,
2013-05-26 16:24:00,85.6,64.9,29.41,SE,139,3.1,3.1,50,0.00,,---,0.00,VWS V13.01,2013-05-26 21:24:00,
2013-05-26 16:29:00,85.5,66.4,29.41,South,174,10.1,10.1,53,0.00,,---,0.00,VWS V13.01,2013-05-26 21:29:00,
2013-05-26 16:34:00,85.5,66.4,29.41,South,179,8.7,8.7,53,0.00,,---,0.00,VWS V13.01,2013-05-26 21:34:00,
2013-05-26 16:39:00,85.5,66.4,29.41,South,189,8.7,8.7,53,0.00,,---,0.00,VWS V13.01,2013-05-26 21:39:00,
2013-05-26 16:44:00,86.0,64.0,29.41,SSE,152,10.1,10.1,48,0.00,,---,0.00,VWS V13.01,2013-05-26 21:44:00,
2013-05-26 16:49:00,85.8,65.1,29.41,SE,141,4.0,4.0,50,0.00,,---,0.00,VWS V13.01,2013-05-26 21:49:00,
2013-05-26 16:54:00,85.8,65.1,29.38,SE,141,4.0,4.0,50,0.00,,---,0.00,VWS V13.01,2013-05-26 21:54:00,
2013-05-26 16:59:00,86.5,65.1,29.38,SSE,159,13.6,13.6,49,0.00,,---,0.00,VWS V13.01,2013-05-26 21:59:00,
2013-05-26 17:04:00,86.5,65.1,29.38,SSE,153,11.0,11.0,49,0.00,,---,0.00,VWS V13.01,2013-05-26 22:04:00,
2013-05-26 17:09:00,87.1,64.4,29.38,SSE,157,7.6,7.6,47,0.00,,---,0.00,VWS V13.01,2013-05-26 22:09:00,
2013-05-26 17:14:00,86.9,64.3,29.38,SSE,149,5.8,5.8,47,0.00,,---,0.00,VWS V13.01,2013-05-26 22:14:00,
2013-05-26 17:19:00,86.9,64.3,29.38,SSE,150,8.7,8.7,47,0.00,,---,0.00,VWS V13.01,2013-05-26 22:19:00,
2013-05-26 17:24:00,86.4,64.4,29.38,SE,124,4.0,4.0,48,0.00,,---,0.00,VWS V13.01,2013-05-26 22:24:00,
2013-05-26 17:29:00,85.6,64.9,29.38,SE,146,11.0,11.0,50,0.00,,---,0.00,VWS V13.01,2013-05-26 22:29:00,
2013-05-26 17:34:00,85.3,64.6,29.38,SE,130,9.6,9.6,50,0.00,,---,0.00,VWS V13.01,2013-05-26 22:34:00,
2013-05-26 17:39:00,85.3,64.6,29.38,South,187,12.8,12.8,50,0.00,,---,0.00,VWS V13.01,2013-05-26 22:39:00,
2013-05-26 17:44:00,85.3,64.6,29.38,SSE,165,5.8,5.8,50,0.00,,---,0.00,VWS V13.01,2013-05-26 22:44:00,
2013-05-26 17:49:00,85.5,65.8,29.38,SSE,165,5.8,5.8,52,0.00,,---,0.00,VWS V13.01,2013-05-26 22:49:00,
2013-05-26 17:54:00,85.3,65.1,29.38,SSE,165,5.8,5.8,51,0.00,,---,0.00,VWS V13.01,2013-05-26 22:54:00,
2013-05-26 17:59:00,85.1,65.0,29.35,South,191,10.1,13.2,51,0.00,,---,0.00,VWS V13.01,2013-05-26 22:59:00,
2013-05-26 18:04:00,85.1,65.0,29.35,SSE,162,10.1,10.1,51,0.00,,---,0.00,VWS V13.01,2013-05-26 23:04:00,
2013-05-26 18:09:00,85.1,65.0,29.35,SE,133,8.1,8.1,51,0.00,,---,0.00,VWS V13.01,2013-05-26 23:09:00,
2013-05-26 18:14:00,85.1,65.0,29.35,South,174,7.6,7.6,51,0.00,,---,0.00,VWS V13.01,2013-05-26 23:14:00,
2013-05-26 18:19:00,84.9,65.3,29.35,SE,126,11.0,11.0,52,0.00,,---,0.00,VWS V13.01,2013-05-26 23:19:00,
2013-05-26 18:24:00,84.7,65.2,29.35,SE,146,8.7,8.7,52,0.00,,---,0.00,VWS V13.01,2013-05-26 23:24:00,
2013-05-26 18:29:00,84.7,65.2,29.35,SE,146,4.9,4.9,52,0.00,,---,0.00,VWS V13.01,2013-05-26 23:29:00,
2013-05-26 18:34:00,84.7,65.2,29.35,South,189,5.8,5.8,52,0.00,,---,0.00,VWS V13.01,2013-05-26 23:34:00,
2013-05-26 18:39:00,84.6,65.0,29.35,South,169,8.3,8.3,52,0.00,,---,0.00,VWS V13.01,2013-05-26 23:39:00,
2013-05-26 18:44:00,84.7,65.7,29.35,South,169,8.3,8.3,53,0.00,,---,0.00,VWS V13.01,2013-05-26 23:44:00,
2013-05-26 18:49:00,84.7,65.7,29.35,South,183,4.9,4.9,53,0.00,,---,0.00,VWS V13.01,2013-05-26 23:49:00,
2013-05-26 18:54:00,84.6,65.0,29.35,South,183,4.9,4.9,52,0.00,,---,0.00,VWS V13.01,2013-05-26 23:54:00,
2013-05-26 18:59:00,84.6,65.0,29.35,South,173,8.7,8.7,52,0.00,,---,0.00,VWS V13.01,2013-05-26 23:59:00,
2013-05-26 19:04:00,84.4,65.4,29.35,SSE,152,0.0,0.0,53,0.00,,---,0.00,VWS V13.01,2013-05-27 00:04:00,
2013-05-26 19:09:00,84.4,65.4,29.35,SE,142,2.7,2.7,53,0.00,,---,0.00,VWS V13.01,2013-05-27 00:09:00,
2013-05-26 19:14:00,83.8,65.4,29.35,SSE,166,4.0,4.0,54,0.00,,---,0.00,VWS V13.01,2013-05-27 00:14:00,
2013-05-26 19:19:00,83.7,65.3,29.35,SE,140,8.3,8.3,54,0.00,,---,0.00,VWS V13.01,2013-05-27 00:19:00,
2013-05-26 19:24:00,83.7,65.3,29.35,SSE,147,4.9,4.9,54,0.00,,---,0.00,VWS V13.01,2013-05-27 00:24:00,
2013-05-26 19:29:00,83.3,65.5,29.35,SSE,147,4.9,4.9,55,0.00,,---,0.00,VWS V13.01,2013-05-27 00:29:00,
2013-05-26 19:34:00,83.1,65.8,29.35,SE,135,5.8,5.8,56,0.00,,---,0.00,VWS V13.01,2013-05-27 00:34:00,
2013-05-26 19:39:00,83.1,65.8,29.35,SE,135,5.8,5.8,56,0.00,,---,0.00,VWS V13.01,2013-05-27 00:39:00,
2013-05-26 19:44:00,82.9,65.7,29.35,SSE,158,6.3,6.3,56,0.00,,---,0.00,VWS V13.01,2013-05-27 00:44:00,
2013-05-26 19:49:00,82.9,65.7,29.35,SSE,157,0.0,0.0,56,0.00,,---,0.00,VWS V13.01,2013-05-27 00:49:00,
2013-05-26 19:54:00,82.8,66.0,29.35,SSE,157,0.0,0.0,57,0.00,,---,0.00,VWS V13.01,2013-05-27 00:54:00,
2013-05-26 19:59:00,82.6,65.8,29.35,SSE,147,0.0,0.0,57,0.00,,---,0.00,VWS V13.01,2013-05-27 00:59:00,
2013-05-26 20:04:00,82.6,66.3,29.35,SSE,147,0.0,0.0,58,0.00,,---,0.00,VWS V13.01,2013-05-27 01:04:00,
2013-05-26 20:09:00,82.2,66.0,29.35,SSE,147,0.0,0.0,58,0.00,,---,0.00,VWS V13.01,2013-05-27 01:09:00,
2013-05-26 20:14:00,82.2,66.0,29.35,SSE,147,0.0,0.0,58,0.00,,---,0.00,VWS V13.01,2013-05-27 01:14:00,
2013-05-26 20:19:00,82.0,65.8,29.35,SSE,153,7.6,7.6,58,0.00,,---,0.00,VWS V13.01,2013-05-27 01:19:00,
2013-05-26 20:24:00,81.9,66.1,29.35,SSE,153,7.6,7.6,59,0.00,,---,0.00,VWS V13.01,2013-05-27 01:24:00,
2013-05-26 20:29:00,81.7,66.0,29.35,SSE,153,7.6,7.6,59,0.00,,---,0.00,VWS V13.01,2013-05-27 01:29:00,
2013-05-26 20:34:00,81.7,66.0,29.35,SSE,153,7.6,7.6,59,0.00,,---,0.00,VWS V13.01,2013-05-27 01:34:00,
2013-05-26 20:39:00,81.7,66.0,29.35,SE,141,8.3,8.3,59,0.00,,---,0.00,VWS V13.01,2013-05-27 01:39:00,
2013-05-26 20:43:00,81.5,66.3,29.35,SE,141,8.3,8.3,60,0.00,,---,0.00,VWS V13.01,2013-05-27 01:43:00,
2013-05-26 20:48:00,81.3,66.1,29.35,SSE,161,4.0,4.0,60,0.00,,---,0.00,VWS V13.01,2013-05-27 01:48:00,
2013-05-26 20:54:00,81.1,66.4,29.35,SSE,161,4.0,4.0,61,0.00,,---,0.00,VWS V13.01,2013-05-27 01:54:00,